Regional Weather Roundup
Issued by NWS

Home | Current Version | Previous Version | Text Only | Print | Product List | Glossary Off
Versions: 1 2 3 4 5 6 7 8 9 10 11 12 13 14 15 16 17 18 19 20 21 22 23 24 25 26 27 28 29 30 31 32 33 34 35 36 37 38 39 40 41 42 43 44 45 46 47 48 49 50

000
ASUS45 KBOU 051007
RWRCO

WEATHER ROUNDUP FOR COLORADO
NATIONAL WEATHER SERVICE DENVER/BOULDER CO
400 AM MDT WED AUG 05 2015

NOTE: "FAIR" INDICATES FEW OR NO CLOUDS BELOW 12000 FEET WITH NO
SIGNIFICANT WEATHER AND/OR OBSTRUCTIONS TO VISIBILITY.

COZ001>005-013-030-031-051100-
...NORTHWEST COLORADO...

CITY           SKY/WX    TMP DP  RH WIND       PRES   REMARKS
CRAIG          NOT AVBL
HAYDEN         CLEAR     54  39  58 E12       30.25R
MEEKER         CLEAR     52  39  61 NE5       30.24F
MOUNT WERNER   NOT AVBL
STEAMBOAT SPGS   N/A    N/A N/A N/A MISG        N/A
WALDEN         CLEAR     41  34  75 S6        30.36S
$$

COZ006>008-011-051100-
...WEST CENTRAL VALLEYS...

CITY           SKY/WX    TMP DP  RH WIND       PRES   REMARKS
GRAND JUNCTION CLEAR     65  43  44 SE10      30.11R
MONTROSE       CLEAR     60  43  53 SE8       30.23R
EAGLE          CLEAR     52  39  62 CALM      30.33R
RIFLE          CLEAR     58  47  66 SE3       30.20R
DELTA          CLEAR     65  44  46 E10       30.19R
NUCLA          CLEAR     59  43  55 SE8       30.25S
$$

COZ017>023-064>068-051100-
...SOUTHWEST COLORADO...

CITY           SKY/WX    TMP DP  RH WIND       PRES   REMARKS
DURANGO        CLEAR     51  41  68 NE3       30.28R
CORTEZ         CLEAR     51  46  83 E5        30.21S
PAGOSA SPRINGS CLEAR     49  39  67 CALM      30.37S
TELLURIDE      CLEAR     51  40  67 E3        30.50R
WOLF CREEK PAS NOT AVBL
$$

COZ009-010-012-014-032>034-037-058>063-051100-
...CENTRAL COLORADO...

CITY           SKY/WX    TMP DP  RH WIND       PRES   REMARKS
ASPEN          CLEAR     51  39  63 SW8       30.36S
BUENA VISTA    CLEAR     47  40  76 CALM      30.40R
COPPER MTN     CLEAR     54  32  43 SW10G22   30.66S
BERTHOUD PASS  FAIR      41  32  70 NW21G28   30.68S
COTTONWOOD PAS CLEAR     59  28  31 SW5       30.51S
GUNNISON       CLEAR     46  39  76 NE3       30.43S
KREMMLING      CLEAR     43  34  70 CALM      30.37S
LEADVILLE      CLEAR     41  35  79 E7        30.51S
MONARCH PASS   CLEAR     46  32  57 SW16      30.77S
SALIDA         CLEAR     50  40  68 CALM      30.45R
SUNLIGHT       CLEAR     54  36  50 CALM      30.59F
WILKERSON PASS NOT AVBL
$$

COZ069>075-051100-
...SAN LUIS VALLEY/SANGRE DE CRISTO MOUNTAINS...

CITY           SKY/WX    TMP DP  RH WIND       PRES   REMARKS
ALAMOSA        CLEAR     47  42  83 CALM      30.34S
LA VETA PASS   CLEAR     54  34  47 MISG      30.54S
SAGUACHE       CLEAR     55  37  50 NW12      30.37S
$$

COZ035-036-038>040-051100-
...NORTHERN COLORADO FRONT RANGE...

CITY           SKY/WX    TMP DP  RH WIND       PRES   REMARKS
DENVER INTL AP CLEAR     62  49  62 SW9       30.15S
DMNS CITY PARK   N/A     60  50  69 SW3G9     30.15S
AURORA         PTCLDY    59  49  69 S8        30.18S
FRONT RANGE AP NOT AVBL
ERIE MUNI ARPT CLEAR     56  46  69 CALM      30.14S
BOULDER MUN AP CLEAR     63  43  48 CALM      30.14S
CENTENNIAL     CLEAR     57  47  69 SE7       30.19R
BROOMFIELD     CLEAR     64  41  42 CALM      30.18S
FORT COLLINS   CLEAR     61  54  77 N5        30.14S
LONGMONT       CLEAR     57  50  76 CALM      30.15S
$$

COZ041-046-047-076>085-087-088-051100-
...PIKES PEAK/PALMER DIVIDE AND SOUTHERN FOOTHILLS...

CITY           SKY/WX    TMP DP  RH WIND       PRES   REMARKS
COLO. SPRINGS  CLEAR     57  52  83 N7        30.24S
A. F. ACADEMY  CLEAR     51  47  84 N9        30.25S
ELLICOTT       CLEAR    N/A N/A N/A N3        30.22S
FALCON         CLEAR     58  54  86 W8        30.28S
FORT CARSON    CLEAR     59  49  70 NW12      30.20S
LIMON          CLEAR     52  51  97 N5        30.17S
MONUMENT HILL  CLEAR     57  50  77 SW8       30.28S
TRINIDAD       CLEAR     61  49  64 W10       30.19S
$$

COZ042>045-048>051-090-091-051100-
...NORTHEAST COLORADO...

CITY           SKY/WX    TMP DP  RH WIND       PRES   REMARKS
GREELEY ARPT   CLEAR     55  52  88 NW5       30.12F
AKRON          CLEAR     59  55  87 W12       30.11S
BURLINGTON     CLEAR     61  58  90 NE7       30.08R
WRAY           FOG      N/A N/A N/A SW5       30.05F VSB 1/2
STERLING       CLEAR     54  54 100 CALM      30.07F
HOLYOKE        MOCLDY    61  59  94 W8        30.05F FOG
FORT MORGAN    CLEAR     58  52  80 CALM      30.11S
$$

COZ086-089-092>099-051100-
...SOUTHEAST COLORADO...

CITY           SKY/WX    TMP DP  RH WIND       PRES   REMARKS
PUEBLO         CLEAR     65  57  75 W3        30.13S
LA JUNTA       CLEAR     64  59  83 NW7       30.09R
LAMAR          CLEAR     62  60  93 W3        30.03R
SPRINGFIELD      N/A     62  60  93 CALM      30.06S
$$



USA.gov is the U.S. government's official web portal to all federal, state and local government web resources and services.